Tiempo atmosférico en la estación meteorológica de Cabo Vilan, A Coruña (50 m.)



Fecha
DESCASC
Temp. máxima en grados centígrados (hora)
DESCASC
Temp. mínima en grados centígrados (hora)
DESCASC
Temp. media en grados centígrados
DESCASC
Racha de viento máxima en m/sg (hora)
DESCASC
Velocidad máxima media en intervalos de 10 minutos(hora)
DESCASC
Precipitaciones diarias en mm
DESCASC
Precipitaciones de 00:00 a 06:00 en mm
DESCASC
Precipitaciones de 06:00 a 12:00 en mm
DESCASC
Precipitaciones de 12:00 a 18:00 en mm
DESCASC
Precipitaciones de 18:00 a 24:00 en mm
DESCASC
18-02-2018 -- (--) -- (--) -- 7.78 (19:30) 6.11 (19:10) 0 0 0 0 0
17-02-2018 -- (--) -- (--) -- 9.72 (09:10) 8.06 (09:10) 0 0 0 0 0
16-02-2018 -- (--) -- (--) -- 8.61 (21:30) 6.94 (21:50) 33.1 6.7 5.5 14.7 6.2
15-02-2018 -- (--) -- (--) -- 16.94 (01:10) 13.06 (01:10) 8.1 0 1.7 0.5 5.9
14-02-2018 -- (--) -- (--) -- 20.28 (04:40) 15.56 (04:50) 7.7 4.8 2 0.2 0.7
13-02-2018 -- (--) -- (--) -- 23.61 (06:40) 18.33 (03:50) 34.6 4.3 26.2 4 0.1
12-02-2018 -- (--) -- (--) -- 15.56 (23:40) 12.5 (23:59) 6.3 0 6.3 0 0
11-02-2018 -- (--) -- (--) -- 14.17 (17:20) 11.39 (19:20) 8.2 0.7 6.6 0.9 0
10-02-2018 -- (--) -- (--) -- 9.17 (19:40) 6.94 (19:40) 3.9 0 0 1.1 2.8
09-02-2018 -- (--) -- (--) -- 16.39 (11:50) 13.61 (11:50) 1.3 1 0.3 0 0
08-02-2018 -- (--) -- (--) -- 13.61 (22:30) -- (--) 2.5 0 0.1 1.3 1.1
07-02-2018 -- (--) -- (--) -- 26.67 (01:10) 20.83 (01:10) 11.9 7.1 3.4 1.4 0
06-02-2018 -- (--) -- (--) -- 27.5 (21:30) 20.56 (23:59) 6.4 0.2 0.1 0.2 5.9
05-02-2018 -- (--) -- (--) -- 26.11 (05:20) 21.11 (08:30) 5.3 2.2 3.1 0 0
04-02-2018 -- (--) -- (--) -- 22.22 (23:30) 16.67 (05:20) 9.9 1.2 2 4.2 2.5
03-02-2018 -- (--) -- (--) -- 17.78 (18:00) 12.78 (22:20) 14.2 0.4 11.9 1.3 0.6
02-02-2018 -- (--) -- (--) -- 21.39 (05:10) 15.83 (05:10) 1.2 0.1 0.8 0.3 0
01-02-2018 -- (--) -- (--) -- 24.17 (20:40) 18.61 (20:40) 2.8 0.6 1 0.6 0.6
31-01-2018 12.5 (14:10) 8.8 (00:00) 10.7 12.78 (23:00) 10 (23:10) 0.3 0 0 0 0.3
30-01-2018 12.2 (15:10) 8.2 (00:00) 10.2 13.61 (00:20) 10.56 (18:00) 0 0 0 0 0
29-01-2018 16.7 (12:20) 9.3 (00:00) 13 13.61 (22:30) 11.67 (22:20) 0 0 0 0 0
28-01-2018 13.3 (17:00) 9 (00:00) 11.2 13.61 (08:10) 11.39 (02:10) 0 0 0 0 0
27-01-2018 12.6 (15:00) 10.1 (00:00) 11.4 10 (23:00) 8.61 (23:40) 0.7 0 0 0.5 0.2
26-01-2018 11.8 (13:40) 8.3 (00:00) 10.1 17.5 (08:30) 13.33 (08:30) 0.6 0.2 0.3 0 0.1
25-01-2018 12.1 (13:50) 8.2 (00:00) 10.2 15.83 (22:50) 10 (06:50) 2.3 0.9 1.1 0 0.3
24-01-2018 -- (--) -- (--) -- 18.89 (12:50) 13.89 (13:10) 16.7 0 0.2 12.7 3.8
23-01-2018 -- (--) -- (--) -- 18.33 (10:50) 7.78 (05:20) 0 0 0 0 0
22-01-2018 -- (--) -- (--) -- 11.39 (01:50) 8.61 (01:50) 1.8 0.2 0.4 1.2 0

Gráficas

Temp. máximas Temp. mínimas Temp. medias Precipitaciones Rachas de viento máximas Velocidades máximas media en intervalos de 10 minutos

Datos horarios

Fecha y hora oficial Temperatura (ºC) Velocidad del viento (km/h) Dirección del viento Racha (km/h) Dirección de racha Precipitación (mm) Presión (hPa) Tendencia (hPa) Humedad (%)
2018-02-20 23:00:00 -- 31 Nordeste 51 Nordeste 0 -- -- --
2018-02-20 22:00:00 -- 32 Nordeste 58 Norte 0 -- -- --
2018-02-20 21:00:00 -- 34 Nordeste 63 Nordeste 0 -- -- --
2018-02-20 20:00:00 -- 39 Nordeste 57 Nordeste 0 -- -- --
2018-02-20 19:00:00 -- 38 Nordeste 57 Nordeste 0 -- -- --
2018-02-20 18:00:00 -- 41 Nordeste 60 Nordeste 0 -- -- --
2018-02-20 17:00:00 -- 51 Nordeste 67 Nordeste 0 -- -- --
2018-02-20 16:00:00 -- 51 Nordeste 61 Nordeste 0 -- -- --
2018-02-20 15:00:00 -- 47 Nordeste 55 Nordeste 0 -- -- --
2018-02-20 14:00:00 -- 42 Nordeste 50 Nordeste 0 -- -- --
2018-02-20 13:00:00 -- 40 Nordeste 50 Nordeste 0 -- -- --
2018-02-20 12:00:00 -- 37 Nordeste 50 Nordeste 0 -- -- --
2018-02-20 11:00:00 -- 37 Nordeste 43 Nordeste 0 -- -- --
2018-02-20 10:00:00 -- 31 Nordeste 42 Nordeste 0 -- -- --
2018-02-20 09:00:00 -- 35 Nordeste 41 Nordeste 0 -- -- --
2018-02-20 08:00:00 -- 33 Nordeste 42 Nordeste 0 -- -- --
2018-02-20 07:00:00 -- 36 Nordeste 44 Nordeste 0 -- -- --
2018-02-20 06:00:00 -- 37 Nordeste 44 Nordeste 0 -- -- --
2018-02-20 05:00:00 -- 33 Nordeste 44 Nordeste 0 -- -- --
2018-02-20 04:00:00 -- 29 Nordeste 45 Nordeste 0 -- -- --
2018-02-20 03:00:00 -- 40 Nordeste 47 Nordeste 0 -- -- --
2018-02-20 02:00:00 -- 30 Nordeste 43 Nordeste 0 -- -- --
2018-02-20 01:00:00 -- 36 Nordeste 44 Nordeste 0 -- -- --
2018-02-20 00:00:00 -- 33 Nordeste 39 Nordeste 0 -- -- --
2018-02-19 23:00:00 -- 32 Nordeste 40 Nordeste 0 -- -- --
2018-02-19 22:00:00 -- 33 Nordeste 40 Nordeste 0 -- -- --
2018-02-19 21:00:00 -- 34 Nordeste 39 Nordeste 0 -- -- --
2018-02-19 20:00:00 -- 28 Nordeste 34 Nordeste 0 -- -- --
2018-02-19 19:00:00 -- 28 Nordeste 35 Norte 0 -- -- --
2018-02-19 18:00:00 -- 29 Nordeste 34 Norte 0 -- -- --
2018-02-19 17:00:00 -- 27 Norte 31 Norte 0 -- -- --
2018-02-19 16:00:00 -- 21 Nordeste 36 Norte 0 -- -- --
2018-02-19 15:00:00 -- 28 Nordeste 37 Nordeste 0 -- -- --
2018-02-19 14:00:00 -- 22 Nordeste 27 Nordeste 0 -- -- --
2018-02-19 13:00:00 -- 23 Nordeste 29 Norte 0 -- -- --
2018-02-19 12:00:00 -- 23 Nordeste 27 Norte 0 -- -- --
2018-02-19 11:00:00 -- 22 Nordeste 27 Norte 0 -- -- --
2018-02-19 10:00:00 -- 22 Norte 26 Norte 0 -- -- --
2018-02-19 09:00:00 -- 22 Nordeste 27 Norte 0 -- -- --
2018-02-19 08:00:00 -- 23 Nordeste 28 Nordeste 0 -- -- --
2018-02-19 07:00:00 -- 23 Nordeste 28 Nordeste 0 -- -- --
2018-02-19 06:00:00 -- 19 Nordeste 23 Nordeste 0 -- -- --
2018-02-19 05:00:00 -- 14 Nordeste 17 Nordeste 0 -- -- --
2018-02-19 04:00:00 -- 11 Nordeste 15 Nordeste 0 -- -- --
2018-02-19 03:00:00 -- 11 Nordeste 14 Nordeste 0 -- -- --
2018-02-19 02:00:00 -- 9 Nordeste 14 Nordeste 0 -- -- --
2018-02-19 01:00:00 -- 13 Nordeste 19 Nordeste 0 -- -- --
2018-02-19 00:00:00 -- 13 Nordeste 19 Nordeste 0 -- -- --
2018-02-18 23:00:00 -- 12 Nordeste 18 Nordeste 0 -- -- --
2018-02-18 22:00:00 -- 14 Nordeste 26 Nordeste 0 -- -- --
2018-02-18 21:00:00 -- 16 Nordeste 28 Nordeste 0 -- -- --
2018-02-18 20:00:00 -- 21 Nordeste 28 Nordeste 0 -- -- --
2018-02-18 19:00:00 -- 21 Nordeste 26 Nordeste 0 -- -- --
2018-02-18 18:00:00 -- 20 Nordeste 24 Nordeste 0 -- -- --
2018-02-18 17:00:00 -- 17 Nordeste 25 Norte 0 -- -- --
2018-02-18 16:00:00 -- 19 Nordeste 25 Nordeste 0 -- -- --
2018-02-18 15:00:00 -- 17 Norte 20 Nordeste 0 -- -- --
2018-02-18 14:00:00 -- 18 Norte 21 Norte 0 -- -- --
2018-02-18 13:00:00 -- 17 Nordeste 21 Nordeste 0 -- -- --
2018-02-18 12:00:00 -- 16 Nordeste 19 Nordeste 0 -- -- --
2018-02-18 11:00:00 -- 12 Nordeste 16 Este 0 -- -- --
2018-02-18 10:00:00 -- 13 Este 18 Este 0 -- -- --
2018-02-18 09:00:00 -- 14 Este 16 Este 0 -- -- --
2018-02-18 08:00:00 -- 9 Nordeste 12 Este 0 -- -- --
2018-02-18 07:00:00 -- 7 Nordeste 15 Este 0 -- -- --
2018-02-18 06:00:00 -- 13 Este 17 Este 0 -- -- --
2018-02-18 05:00:00 -- 14 Este 18 Nordeste 0 -- -- --
2018-02-18 04:00:00 -- 14 Este 17 Este 0 -- -- --
2018-02-18 03:00:00 -- 14 Este 19 Este 0 -- -- --
2018-02-18 02:00:00 -- 14 Nordeste 20 Nordeste 0 -- -- --
2018-02-18 01:00:00 -- 15 Nordeste 22 Nordeste 0 -- -- --
2018-02-18 00:00:00 -- 14 Nordeste 21 Nordeste 0 -- -- --
2018-02-17 23:00:00 -- 15 Nordeste 22 Nordeste 0 -- -- --
2018-02-17 22:00:00 -- 15 Nordeste 28 Nordeste 0 -- -- --
2018-02-17 21:00:00 -- 25 Nordeste 29 Norte 0 -- -- --
2018-02-17 20:00:00 -- 25 Nordeste 31 Norte 0 -- -- --
2018-02-17 19:00:00 -- 25 Nordeste 32 Nordeste 0 -- -- --
2018-02-17 18:00:00 -- 27 Nordeste 32 Nordeste 0 -- -- --
2018-02-17 17:00:00 -- 26 Nordeste 31 Norte 0 -- -- --
2018-02-17 16:00:00 -- 26 Nordeste 32 Nordeste 0 -- -- --
2018-02-17 15:00:00 -- 23 Nordeste 29 Nordeste 0 -- -- --
2018-02-17 14:00:00 -- 23 Nordeste 28 Nordeste 0 -- -- --
2018-02-17 13:00:00 -- 22 Nordeste 27 Nordeste 0 -- -- --
2018-02-17 12:00:00 -- 23 Nordeste 29 Nordeste 0 -- -- --
2018-02-17 11:00:00 -- 26 Nordeste 33 Nordeste 0 -- -- --
2018-02-17 10:00:00 -- 26 Nordeste 35 Norte 0 -- -- --
2018-02-17 09:00:00 -- 28 Norte 33 Norte 0 -- -- --
2018-02-17 08:00:00 -- 24 Norte 31 Norte 0 -- -- --
2018-02-17 07:00:00 -- 26 Norte 31 Norte 0 -- -- --
2018-02-17 06:00:00 -- 25 Norte 30 Norte 0 -- -- --
2018-02-17 05:00:00 -- 3 Este 10 Sudeste 0 -- -- --
2018-02-17 04:00:00 -- 9 Nordeste 13 Nordeste 0 -- -- --
2018-02-17 03:00:00 -- 8 Nordeste 12 Nordeste 0 -- -- --
2018-02-17 02:00:00 -- 9 Nordeste 15 Nordeste 0 -- -- --
2018-02-17 01:00:00 -- 10 Nordeste 16 Nordeste 0 -- -- --
2018-02-17 00:00:00 -- 11 Nordeste 17 Nordeste 0 -- -- --
2018-02-16 23:00:00 -- 12 Nordeste 22 Este 0.1 -- -- --
2018-02-16 22:00:00 -- 19 Nordeste 31 Nordeste 0.6 -- -- --
2018-02-16 21:00:00 -- 6 Este 13 Nordeste 0.9 -- -- --
2018-02-16 20:00:00 -- 10 Nordeste 14 Nordeste 1.2 -- -- --
2018-02-16 19:00:00 -- 9 Norte 24 Norte 3.4 -- -- --
2018-02-16 18:00:00 -- 11 Noroeste 16 Noroeste 3.5 -- -- --
2018-02-16 17:00:00 -- 10 Norte 14 Norte 3.1 -- -- --
2018-02-16 16:00:00 -- 10 Norte 15 Nordeste 2.3 -- -- --
2018-02-16 15:00:00 -- 11 Norte 16 Noroeste 4.2 -- -- --
2018-02-16 14:00:00 -- 8 Norte 10 Norte 1.2 -- -- --
2018-02-16 13:00:00 -- 3 Nordeste 5 Nordeste 0.4 -- -- --
2018-02-16 12:00:00 -- 2 Norte 4 Nordeste 0.1 -- -- --
2018-02-16 11:00:00 -- 3 Nordeste 9 Noroeste 3.3 -- -- --
2018-02-16 10:00:00 -- 5 Oeste 21 Sudeste 0.2 -- -- --
2018-02-16 09:00:00 -- 15 Sudeste 25 Sudeste 0.1 -- -- --
2018-02-16 08:00:00 -- 17 Sudeste 21 Sudeste 1 -- -- --
2018-02-16 07:00:00 -- 10 Nordeste 14 Norte 0.8 -- -- --
2018-02-16 06:00:00 -- 11 Norte 13 Norte 0.3 -- -- --
2018-02-16 05:00:00 -- 9 Este 14 Este 1.9 -- -- --
2018-02-16 04:00:00 -- 5 Nordeste 13 Nordeste 2.7 -- -- --
2018-02-16 03:00:00 -- 9 Nordeste 14 Nordeste 0.4 -- -- --
2018-02-16 02:00:00 -- 9 Nordeste 13 Nordeste 0.5 -- -- --
2018-02-16 01:00:00 -- 5 Nordeste 10 Nordeste 0.9 -- -- --
2018-02-16 00:00:00 -- 6 Nordeste 13 Nordeste 0.3 -- -- --
2018-02-15 23:00:00 -- 13 Nordeste 19 Nordeste 1.2 -- -- --
2018-02-15 22:00:00 -- 15 Nordeste 19 Nordeste 1.3 -- -- --
2018-02-15 21:00:00 -- 9 Norte 11 Norte 1 -- -- --
2018-02-15 20:00:00 -- 3 Norte 27 Sudoeste 1.9 -- -- --
2018-02-15 19:00:00 -- 24 Sudoeste 39 Sudoeste 0.2 -- -- --
2018-02-15 18:00:00 -- 32 Sudoeste 48 Sudoeste 0.5 -- -- --
2018-02-15 17:00:00 -- 34 Sudoeste 46 Sur 0 -- -- --
2018-02-15 16:00:00 -- 32 Sudoeste 50 Sudoeste 0 -- -- --
2018-02-15 15:00:00 -- 38 Sudoeste 53 Sudoeste 0 -- -- --
2018-02-15 14:00:00 -- 41 Sudoeste 53 Sudoeste 0 -- -- --
2018-02-15 13:00:00 -- 37 Sudoeste 55 Sudoeste 0 -- -- --
2018-02-15 12:00:00 -- 41 Sudoeste 57 Sudoeste 0.2 -- -- --
2018-02-15 11:00:00 -- 44 Sudoeste 59 Sudoeste 0.1 -- -- --
2018-02-15 10:00:00 -- 41 Sudoeste 56 Sudoeste 0.2 -- -- --
2018-02-15 09:00:00 -- 39 Sudoeste 57 Sudoeste 0.7 -- -- --
2018-02-15 08:00:00 -- 38 Sur 58 Sudoeste 0.5 -- -- --
2018-02-15 07:00:00 -- 42 Sudoeste 59 Sur 0 -- -- --
2018-02-15 06:00:00 -- 39 Sudoeste 54 Sur 0 -- -- --
2018-02-15 05:00:00 -- 42 Sudoeste 57 Sudoeste 0 -- -- --
2018-02-15 04:00:00 -- 44 Sudoeste 61 Sudoeste 0 -- -- --
2018-02-15 03:00:00 -- 45 Sudoeste 61 Sur 0 -- -- --
2018-02-15 02:00:00 -- 41 Sudoeste 61 Sudoeste 0 -- -- --
2018-02-15 01:00:00 -- 44 Sudoeste 60 Sudoeste 0 -- -- --
2018-02-15 00:00:00 -- 45 Sudoeste 62 Sudoeste 0 -- -- --
2018-02-14 23:00:00 -- 45 Sudoeste 59 Sudoeste 0.4 -- -- --
2018-02-14 22:00:00 -- 42 Sudoeste 58 Sudoeste 0 -- -- --
2018-02-14 21:00:00 -- 43 Sudoeste 63 Sur 0.2 -- -- --
2018-02-14 20:00:00 -- 47 Sudoeste 67 Sudoeste 0 -- -- --
2018-02-14 19:00:00 -- 45 Sudoeste 64 Sudoeste 0.1 -- -- --
2018-02-14 18:00:00 -- 48 Sudoeste 65 Sudoeste 0 -- -- --
2018-02-14 17:00:00 -- 50 Sudoeste 65 Sudoeste 0 -- -- --
2018-02-14 16:00:00 -- 46 Sudoeste 68 Sudoeste 0.1 -- -- --
2018-02-14 15:00:00 -- 49 Sudoeste 61 Sudoeste 0.1 -- -- --
2018-02-14 14:00:00 -- 43 Sudoeste 58 Sudoeste 0 -- -- --
2018-02-14 13:00:00 -- 46 Sudoeste 64 Sudoeste 0 -- -- --
2018-02-14 12:00:00 -- 49 Sudoeste 63 Sudoeste 0.1 -- -- --
2018-02-14 11:00:00 -- 46 Sudoeste 69 Sudoeste 0.2 -- -- --
2018-02-14 10:00:00 -- 45 Sudoeste 61 Sudoeste 0.3 -- -- --
2018-02-14 09:00:00 -- 45 Sudoeste 68 Sudoeste 0.3 -- -- --
2018-02-14 08:00:00 -- 54 Sudoeste 72 Sudoeste 0.9 -- -- --
2018-02-14 07:00:00 -- 54 Sudoeste 73 Sur 0.2 -- -- --
2018-02-14 06:00:00 -- 53 Sudoeste 72 Sudoeste 0.1 -- -- --
2018-02-14 05:00:00 -- 55 Sudoeste 73 Sur 0.6 -- -- --
2018-02-14 04:00:00 -- 51 Sudoeste 73 Sudoeste 3.2 -- -- --
2018-02-14 03:00:00 -- 51 Sudoeste 72 Sur 0.6 -- -- --
2018-02-14 02:00:00 -- 51 Sudoeste 69 Sudoeste 0.3 -- -- --
2018-02-14 01:00:00 -- 48 Sur 66 Sur 0 -- -- --
2018-02-14 00:00:00 -- 48 Sudoeste 63 Sudoeste 0 -- -- --
2018-02-13 23:00:00 -- 44 Sudoeste 60 Sudoeste 0 -- -- --
2018-02-13 22:00:00 -- 39 Sudoeste 51 Sudoeste 0 -- -- --
2018-02-13 21:00:00 -- 35 Sudoeste 47 Sudoeste 0 -- -- --
2018-02-13 20:00:00 -- 35 Sudoeste 44 Sudoeste 0 -- -- --
2018-02-13 19:00:00 -- 28 Sudoeste 43 Sudoeste 0.1 -- -- --
2018-02-13 18:00:00 -- 24 Sudoeste 33 Sur 0.7 -- -- --
2018-02-13 17:00:00 -- 13 Sudoeste 20 Sudoeste 0.9 -- -- --
2018-02-13 16:00:00 -- 17 Sudoeste 22 Sudoeste 0.5 -- -- --
2018-02-13 15:00:00 -- 15 Oeste 21 Sudoeste 0.2 -- -- --
2018-02-13 14:00:00 -- 12 Sudoeste 17 Oeste 0.5 -- -- --
2018-02-13 13:00:00 -- 10 Oeste 20 Oeste 1.2 -- -- --
2018-02-13 12:00:00 -- 12 Oeste 18 Oeste 0.6 -- -- --
2018-02-13 11:00:00 -- 12 Oeste 26 Oeste 0.9 -- -- --
2018-02-13 10:00:00 -- 15 Noroeste 31 Oeste 1.6 -- -- --
2018-02-13 09:00:00 -- 23 Oeste 65 Sudoeste -- -- -- --
2018-02-13 08:00:00 -- 55 Sudoeste 78 Sudoeste 6.7 -- -- --
2018-02-13 07:00:00 -- 57 Sudoeste 85 Sudoeste 2.9 -- -- --
2018-02-13 06:00:00 -- 60 Sudoeste 82 Sudoeste 1.8 -- -- --
2018-02-13 05:00:00 -- 57 Sudoeste 79 Sudoeste 1.8 -- -- --
2018-02-13 04:00:00 -- 61 Sudoeste 82 Sudoeste 0.7 -- -- --
2018-02-13 03:00:00 -- 58 Sudoeste 80 Sudoeste 0 -- -- --
2018-02-13 02:00:00 -- 56 Sudoeste 72 Sudoeste 0 -- -- --
2018-02-13 01:00:00 -- 50 Sudoeste 69 Sudoeste 0 -- -- --
2018-02-13 00:00:00 -- 45 Sudoeste 56 Sudoeste 0 -- -- --
2018-02-12 23:00:00 -- 37 Sudoeste 49 Sudoeste 0 -- -- --
2018-02-12 22:00:00 -- 30 Sudoeste 40 Sudoeste 0 -- -- --
2018-02-12 21:00:00 -- 26 Sudoeste 35 Sudoeste 0 -- -- --
2018-02-12 20:00:00 -- 19 Sudoeste 28 Sudoeste 0 -- -- --
2018-02-12 19:00:00 -- 17 Sudoeste 24 Sudoeste 0 -- -- --
2018-02-12 18:00:00 -- 17 Sudoeste 23 Sudoeste 0 -- -- --
2018-02-12 17:00:00 -- 17 Sudoeste 23 Sudoeste 0 -- -- --
2018-02-12 16:00:00 -- 12 Sudoeste 19 Sudoeste 0 -- -- --
2018-02-12 15:00:00 -- 14 Sudoeste 23 Sudoeste 0 -- -- --
2018-02-12 14:00:00 -- 6 Sudoeste 17 Sudoeste 0 -- -- --
2018-02-12 13:00:00 -- 13 Sur 19 Sudoeste 0 -- -- --
2018-02-12 12:00:00 -- 4 Sur 15 Norte 0 -- -- --
2018-02-12 11:00:00 -- 7 Sudeste 17 Este 1.7 -- -- --
2018-02-12 10:00:00 -- 8 Sudeste 15 Sudeste 1.8 -- -- --
2018-02-12 09:00:00 -- 8 Sudeste 22 Norte 0.8 -- -- --
2018-02-12 08:00:00 -- 20 Norte 37 Norte 2 -- -- --
2018-02-12 07:00:00 -- 8 Este 25 Nordeste 0 -- -- --
2018-02-12 06:00:00 -- 19 Nordeste 34 Nordeste 0 -- -- --
2018-02-12 05:00:00 -- 18 Norte 25 Norte 0 -- -- --
2018-02-12 04:00:00 -- 18 Norte 26 Norte 0 -- -- --
2018-02-12 03:00:00 -- 20 Norte 32 Norte 0 -- -- --
2018-02-12 02:00:00 -- 22 Norte 30 Norte 0 -- -- --
2018-02-12 01:00:00 -- 20 Norte 38 Norte 0 -- -- --
2018-02-12 00:00:00 -- 29 Norte 39 Nordeste 0 -- -- --
2018-02-11 23:00:00 -- 28 Nordeste 37 Nordeste 0 -- -- --
2018-02-11 22:00:00 -- 24 Nordeste 41 Nordeste 0 -- -- --
2018-02-11 21:00:00 -- 35 Nordeste 44 Nordeste 0 -- -- --
2018-02-11 20:00:00 -- 34 Nordeste 49 Nordeste 0 -- -- --
2018-02-11 19:00:00 -- 40 Norte 49 Norte 0 -- -- --
2018-02-11 18:00:00 -- 39 Norte 51 Norte 0 -- -- --
2018-02-11 17:00:00 -- 36 Norte 46 Norte 0 -- -- --
2018-02-11 16:00:00 -- 34 Norte 46 Norte 0.4 -- -- --
2018-02-11 15:00:00 -- 36 Norte 43 Norte 0.4 -- -- --
2018-02-11 14:00:00 -- 5 Nordeste 19 Norte 0 -- -- --
2018-02-11 13:00:00 -- 17 Norte 26 Norte 0.1 -- -- --
2018-02-11 12:00:00 -- 22 Norte 34 Norte 3.9 -- -- --
2018-02-11 11:00:00 -- 26 Norte 35 Sudoeste 2.4 -- -- --
2018-02-11 10:00:00 -- 29 Sudoeste 37 Sudoeste 0.3 -- -- --
2018-02-11 09:00:00 -- 28 Sudoeste 35 Sudoeste 0 -- -- --
2018-02-11 08:00:00 -- 27 Sudoeste 34 Sudoeste 0 -- -- --
2018-02-11 07:00:00 -- 26 Sudoeste 35 Sudoeste 0 -- -- --
2018-02-11 06:00:00 -- 25 Sudoeste 31 Sudoeste 0 -- -- --
2018-02-11 05:00:00 -- 19 Sudoeste 29 Sudoeste 0.2 -- -- --
2018-02-11 04:00:00 -- 21 Sudoeste 29 Sudoeste 0.2 -- -- --
2018-02-11 03:00:00 -- 20 Sudoeste 26 Sudoeste 0.2 -- -- --
2018-02-11 02:00:00 -- 19 Sudoeste 24 Sudoeste 0.1 -- -- --
2018-02-11 01:00:00 -- 19 Oeste 25 Sudoeste 0 -- -- --
2018-02-11 00:00:00 -- 14 Sudoeste 25 Sudoeste 0.4 -- -- --
2018-02-10 23:00:00 -- 20 Sudoeste 26 Sur 0.3 -- -- --
2018-02-10 22:00:00 -- 22 Sudoeste 29 Sudoeste 0.8 -- -- --
2018-02-10 21:00:00 -- 21 Sudoeste 31 Sudoeste 0.7 -- -- --
2018-02-10 20:00:00 -- 24 Sudoeste 33 Sudoeste 0.3 -- -- --
2018-02-10 19:00:00 -- 23 Sudoeste 31 Sudoeste 0.3 -- -- --
2018-02-10 18:00:00 -- 21 Sudoeste 27 Sudoeste 0.6 -- -- --
2018-02-10 17:00:00 -- 21 Sudoeste 26 Sudoeste 0 -- -- --
2018-02-10 16:00:00 -- 16 Sudoeste 29 Sudoeste 0.5 -- -- --
2018-02-10 15:00:00 -- 18 Sudoeste 25 Oeste 0 -- -- --
2018-02-10 14:00:00 -- 16 Oeste 20 Oeste 0 -- -- --
2018-02-10 13:00:00 -- 14 Sudoeste 21 Oeste 0 -- -- --
2018-02-10 12:00:00 -- 17 Sudoeste 23 Oeste 0 -- -- --
2018-02-10 11:00:00 -- 13 Oeste 17 Oeste 0 -- -- --
2018-02-10 10:00:00 -- 11 Oeste 27 Oeste 0 -- -- --
2018-02-10 09:00:00 -- 9 Oeste 20 Oeste 0 -- -- --
2018-02-10 08:00:00 -- 3 Oeste 17 Noroeste 0 -- -- --
2018-02-10 07:00:00 -- 3 Oeste 14 Norte 0 -- -- --
2018-02-10 06:00:00 -- 9 Norte 21 Noroeste 0 -- -- --
2018-02-10 05:00:00 -- 7 Norte 15 Norte 0 -- -- --
2018-02-10 04:00:00 -- 9 Norte 15 Norte 0 -- -- --
2018-02-10 03:00:00 -- 13 Norte 23 Norte 0 -- -- --
2018-02-10 02:00:00 -- 15 Norte 23 Norte 0 -- -- --
2018-02-10 01:00:00 -- 18 Norte 27 Norte 0 -- -- --
2018-02-10 00:00:00 -- 21 Norte 31 Norte 0 -- -- --
2018-02-09 23:00:00 -- 25 Norte 32 Norte 0 -- -- --
2018-02-09 22:00:00 -- 23 Nordeste 36 Norte 0 -- -- --
2018-02-09 21:00:00 -- 30 Norte 42 Norte 0 -- -- --
2018-02-09 20:00:00 -- 34 Norte 42 Nordeste 0 -- -- --
2018-02-09 19:00:00 -- 36 Nordeste 42 Nordeste 0 -- -- --
2018-02-09 18:00:00 -- 36 Norte 43 Norte 0 -- -- --
2018-02-09 17:00:00 -- 36 Nordeste 46 Norte 0 -- -- --
2018-02-09 16:00:00 -- 38 Nordeste 48 Nordeste 0 -- -- --
2018-02-09 15:00:00 -- 36 Norte 49 Norte 0 -- -- --
2018-02-09 14:00:00 -- 40 Norte 50 Norte 0 -- -- --
2018-02-09 13:00:00 -- 45 Norte 53 Norte 0 -- -- --
2018-02-09 12:00:00 -- 45 Norte 59 Norte 0 -- -- --
2018-02-09 11:00:00 -- 39 Nordeste 54 Nordeste 0.2 -- -- --
2018-02-09 10:00:00 -- 35 Norte 43 Norte 0 -- -- --
2018-02-09 09:00:00 -- 34 Norte 47 Norte 0 -- -- --
2018-02-09 08:00:00 -- 36 Norte 50 Norte 0 -- -- --
2018-02-09 07:00:00 -- 35 Norte 48 Norte 0.1 -- -- --
2018-02-09 06:00:00 -- 33 Norte 46 Norte 0 -- -- --
2018-02-09 05:00:00 -- 5 Noroeste 27 Sudeste 0.4 -- -- --
2018-02-09 04:00:00 -- 21 Sur 30 Sudeste 0.1 -- -- --
2018-02-09 03:00:00 -- 22 Sudeste 39 Sur 0 -- -- --
2018-02-09 02:00:00 -- 35 Sur 49 Sur 0.5 -- -- --
2018-02-09 01:00:00 -- 36 Sur 51 Sur 0 -- -- --
2018-02-09 00:00:00 -- 36 Sur 49 Sur 0.4 -- -- --
2018-02-08 23:00:00 -- 35 Sur 49 Sur 0 -- -- --
2018-02-08 22:00:00 -- 32 Sur 44 Sur 0 -- -- --
2018-02-08 21:00:00 -- 30 Sur 42 Sur 0.1 -- -- --
2018-02-08 20:00:00 -- 30 Sur 44 Sur 0.3 -- -- --
2018-02-08 19:00:00 -- 27 Sur 37 Sur 0.3 -- -- --
2018-02-08 18:00:00 -- 27 Sur 36 Sur 0.8 -- -- --
2018-02-08 17:00:00 -- 26 Sur 37 Sur 0 -- -- --
2018-02-08 16:00:00 -- 24 Sudoeste 35 Sudoeste 0 -- -- --
2018-02-08 15:00:00 -- 24 Sudoeste 32 Sudoeste 0 -- -- --
2018-02-08 14:00:00 -- 20 Sudoeste 28 Sudoeste 0.3 -- -- --
2018-02-08 13:00:00 -- 18 Sudoeste 25 Sudoeste 0.2 -- -- --
2018-02-08 12:00:00 -- 12 Sur 17 Sudoeste 0 -- -- --
2018-02-08 11:00:00 -- 10 Sur 18 Sudeste 0 -- -- --
2018-02-08 10:00:00 -- 12 Sudeste 14 Sudeste 0.1 -- -- --
2018-02-08 09:00:00 -- 12 Sur 13 Sur 0 -- -- --
2018-02-08 08:00:00 -- 7 Sur 10 Sur 0 -- -- --
2018-02-08 07:00:00 -- 9 Sudeste 11 Sudeste 0 -- -- --
2018-02-08 06:00:00 -- 8 Sudeste 10 Sudeste 0 -- -- --
2018-02-08 05:00:00 -- 7 Sudeste 11 Sudeste 0 -- -- --
2018-02-08 04:00:00 -- 8 Sudeste 17 Este 0 -- -- --
2018-02-08 03:00:00 -- 16 Este 27 Este 0 -- -- --
2018-02-08 02:00:00 -- 22 Este 30 Este 0 -- -- --
2018-02-08 01:00:00 -- 14 Este 48 Nordeste 0 -- -- --
2018-02-08 00:00:00 -- 33 Nordeste 47 Nordeste 0 -- -- --
2018-02-07 23:00:00 -- 37 Nordeste 47 Nordeste 0 -- -- --
2018-02-07 22:00:00 -- 35 Nordeste 45 Nordeste 0 -- -- --
2018-02-07 21:00:00 -- 35 Nordeste 64 Nordeste 0 -- -- --
2018-02-07 20:00:00 -- 39 Nordeste 52 Nordeste 0 -- -- --
2018-02-07 19:00:00 -- 40 Nordeste 56 Nordeste 0 -- -- --
2018-02-07 18:00:00 -- 42 Nordeste 54 Nordeste 0 -- -- --
2018-02-07 17:00:00 -- 41 Nordeste 64 Nordeste 0 -- -- --
2018-02-07 16:00:00 -- 36 Nordeste 73 Nordeste 0 -- -- --
2018-02-07 15:00:00 -- 48 Nordeste 74 Norte 1.4 -- -- --
2018-02-07 14:00:00 -- 36 Nordeste 70 Nordeste 0 -- -- --
2018-02-07 13:00:00 -- 54 Nordeste 75 Nordeste 0 -- -- --
2018-02-07 12:00:00 -- 58 Nordeste 74 Nordeste 0 -- -- --
2018-02-07 11:00:00 -- 60 Nordeste 91 Nordeste 0 -- -- --
2018-02-07 10:00:00 -- 56 Nordeste 82 Nordeste 0 -- -- --
2018-02-07 09:00:00 -- 58 Norte 93 Nordeste 2.9 -- -- --
2018-02-07 08:00:00 -- 74 Nordeste 93 Nordeste 0.5 -- -- --
2018-02-07 07:00:00 -- 62 Norte 81 Norte 0 -- -- --
2018-02-07 06:00:00 -- 63 Norte 80 Nordeste 0 -- -- --
2018-02-07 05:00:00 -- 62 Nordeste 75 Nordeste 0 -- -- --
2018-02-07 04:00:00 -- 56 Nordeste 82 Nordeste 1.2 -- -- --
2018-02-07 03:00:00 -- 60 Nordeste 81 Nordeste 0.6 -- -- --
2018-02-07 02:00:00 -- 69 Nordeste 96 Nordeste 2.6 -- -- --
2018-02-07 01:00:00 -- 67 Nordeste 95 Nordeste 2.7 -- -- --
2018-02-07 00:00:00 -- 74 Norte 89 Nordeste 1 -- -- --
2018-02-06 23:00:00 -- 63 Nordeste 83 Nordeste 0.1 -- -- --
2018-02-06 22:00:00 -- 68 Nordeste 99 Nordeste 1.1 -- -- --
2018-02-06 21:00:00 -- 57 Nordeste 92 Nordeste 2.5 -- -- --
2018-02-06 20:00:00 -- 34 Nordeste 65 Norte 1.1 -- -- --
2018-02-06 19:00:00 -- 55 Norte 68 Norte 0.1 -- -- --
2018-02-06 18:00:00 -- 21 Nordeste 29 Nordeste 0.1 -- -- --
2018-02-06 17:00:00 -- 20 Norte 33 Norte 0.1 -- -- --
2018-02-06 16:00:00 -- 28 Norte 46 Nordeste 0 -- -- --
2018-02-06 15:00:00 -- 30 Norte 44 Nordeste 0 -- -- --
2018-02-06 14:00:00 -- 31 Nordeste 43 Nordeste 0 -- -- --
2018-02-06 13:00:00 -- 36 Norte 50 Nordeste 0 -- -- --
2018-02-06 12:00:00 -- 38 Norte 55 Nordeste 0 -- -- --
2018-02-06 11:00:00 -- 38 Norte 48 Nordeste 0 -- -- --
2018-02-06 10:00:00 -- 41 Nordeste 70 Nordeste 0.1 -- -- --
2018-02-06 09:00:00 -- 42 Nordeste 60 Nordeste 0 -- -- --
2018-02-06 08:00:00 -- 50 Nordeste 63 Nordeste 0 -- -- --
2018-02-06 07:00:00 -- 26 Nordeste 61 Norte 0 -- -- --
2018-02-06 06:00:00 -- 38 Nordeste 50 Nordeste 0.1 -- -- --
2018-02-06 05:00:00 -- 46 Nordeste 59 Nordeste 0 -- -- --
2018-02-06 04:00:00 -- 39 Nordeste 51 Nordeste 0 -- -- --
2018-02-06 03:00:00 -- 42 Norte 57 Nordeste 0.1 -- -- --
2018-02-06 02:00:00 -- 42 Nordeste 55 Nordeste 0 -- -- --
2018-02-06 01:00:00 -- 44 Nordeste 56 Nordeste 0 -- -- --
2018-02-06 00:00:00 -- 38 Nordeste 63 Nordeste 0 -- -- --
2018-02-05 23:00:00 -- 38 Nordeste 67 Nordeste 0 -- -- --
2018-02-05 22:00:00 -- 56 Nordeste 74 Nordeste 0 -- -- --
2018-02-05 21:00:00 -- 60 Nordeste 74 Nordeste 0 -- -- --
2018-02-05 20:00:00 -- 57 Nordeste 74 Nordeste 0 -- -- --
2018-02-05 19:00:00 -- 61 Nordeste 73 Nordeste 0 -- -- --
2018-02-05 18:00:00 -- 65 Nordeste 78 Nordeste 0 -- -- --
2018-02-05 17:00:00 -- 65 Nordeste 77 Nordeste 0 -- -- --
2018-02-05 16:00:00 -- 62 Nordeste 80 Nordeste 0 -- -- --
2018-02-05 15:00:00 -- 54 Nordeste 80 Nordeste 0 -- -- --
2018-02-05 14:00:00 -- 62 Nordeste 80 Nordeste 0 -- -- --
2018-02-05 13:00:00 -- 62 Nordeste 87 Nordeste 0 -- -- --
2018-02-05 12:00:00 -- 63 Nordeste 87 Nordeste 0 -- -- --
2018-02-05 11:00:00 -- 66 Nordeste 87 Nordeste 0 -- -- --
2018-02-05 10:00:00 -- 69 Nordeste 89 Nordeste 0 -- -- --
2018-02-05 09:00:00 -- 65 Nordeste 89 Nordeste 0 -- -- --
2018-02-05 08:00:00 -- 73 Nordeste 90 Nordeste 0.2 -- -- --
2018-02-05 07:00:00 -- 46 Nordeste 86 Nordeste 2.9 -- -- --
2018-02-05 06:00:00 -- 73 Nordeste 94 Nordeste 0 -- -- --
2018-02-05 05:00:00 -- 64 Nordeste 81 Nordeste 0 -- -- --
2018-02-05 04:00:00 -- 60 Nordeste 87 Nordeste 0.3 -- -- --
2018-02-05 03:00:00 -- 46 Nordeste 84 Nordeste 1.8 -- -- --
2018-02-05 02:00:00 -- 63 Nordeste 79 Nordeste 0 -- -- --
2018-02-05 01:00:00 -- 64 Nordeste 87 Nordeste 0.1 -- -- --
2018-02-05 00:00:00 -- 41 Nordeste 80 Nordeste 0 -- -- --
2018-02-04 23:00:00 -- 33 Nordeste 57 Nordeste 0 -- -- --
2018-02-04 22:00:00 -- 31 Nordeste 72 Nordeste 1 -- -- --
2018-02-04 21:00:00 -- 26 Nordeste 65 Nordeste 1 -- -- --
2018-02-04 20:00:00 -- 40 Nordeste 76 Nordeste 0.4 -- -- --
2018-02-04 19:00:00 -- 44 Nordeste 55 Norte 0.1 -- -- --
2018-02-04 18:00:00 -- 41 Nordeste 57 Nordeste 0.1 -- -- --
2018-02-04 17:00:00 -- 52 Nordeste 65 Nordeste 1.3 -- -- --
2018-02-04 16:00:00 -- 38 Nordeste 62 Nordeste 1.7 -- -- --
2018-02-04 15:00:00 -- 48 Nordeste 77 Nordeste 0 -- -- --
2018-02-04 14:00:00 -- 49 Nordeste 74 Norte 0.5 -- -- --
2018-02-04 13:00:00 -- 40 Nordeste 72 Nordeste 0.6 -- -- --
2018-02-04 12:00:00 -- 47 Nordeste 63 Nordeste 0.4 -- -- --
2018-02-04 11:00:00 -- 53 Nordeste 77 Nordeste 0.2 -- -- --
2018-02-04 10:00:00 -- 42 Norte 63 Nordeste 0.5 -- -- --
2018-02-04 09:00:00 -- 34 Norte 76 Norte 0 -- -- --
2018-02-04 08:00:00 -- 32 Norte 60 Norte 0.1 -- -- --
2018-02-04 07:00:00 -- 26 Norte 76 Norte 0.8 -- -- --
2018-02-04 06:00:00 -- 38 Norte 76 Nordeste 0 -- -- --
2018-02-04 05:00:00 -- 53 Nordeste 71 Nordeste 0.1 -- -- --
2018-02-04 04:00:00 -- 27 Norte 41 Norte 0 -- -- --
2018-02-04 03:00:00 -- 34 Norte 69 Nordeste 0 -- -- --
2018-02-04 02:00:00 -- 41 Norte 63 Sudoeste 0.6 -- -- --
2018-02-04 01:00:00 -- 45 Norte 61 Norte 0.5 -- -- --
2018-02-04 00:00:00 -- 43 Norte 59 Nordeste 0.1 -- -- --
2018-02-03 23:00:00 -- 44 Nordeste 64 Norte 0 -- -- --
2018-02-03 22:00:00 -- 38 Norte 56 Norte 0 -- -- --
2018-02-03 21:00:00 -- 31 Norte 53 Norte 0.3 -- -- --
2018-02-03 20:00:00 -- 31 Norte 58 Norte 0 -- -- --
2018-02-03 19:00:00 -- 40 Norte 53 Norte 0.2 -- -- --
2018-02-03 18:00:00 -- 38 Norte 64 Norte 0.1 -- -- --
2018-02-03 17:00:00 -- 30 Noroeste 51 Noroeste 0.2 -- -- --
2018-02-03 16:00:00 -- 24 Norte 46 Norte 0.8 -- -- --
2018-02-03 15:00:00 -- 22 Norte 42 Norte 0.1 -- -- --
2018-02-03 14:00:00 -- 31 Norte 54 Norte 0.1 -- -- --
2018-02-03 13:00:00 -- 35 Norte 48 Norte 0 -- -- --
2018-02-03 12:00:00 -- 31 Norte 52 Norte 0 -- -- --
2018-02-03 11:00:00 -- 27 Norte 49 Norte 0.4 -- -- --
2018-02-03 10:00:00 -- 7 Norte 32 Sudoeste 8 -- -- --
2018-02-03 09:00:00 -- 23 Sur 35 Sur 2 -- -- --
2018-02-03 08:00:00 -- 22 Sur 31 Sudoeste 1.4 -- -- --
2018-02-03 07:00:00 -- 18 Sur 31 Sudoeste 0.1 -- -- --
2018-02-03 06:00:00 -- 17 Sudoeste 26 Oeste 0.3 -- -- --
2018-02-03 05:00:00 -- 14 Sur 23 Sur 0 -- -- --
2018-02-03 04:00:00 -- 14 Sudeste 17 Sudeste 0 -- -- --
2018-02-03 03:00:00 -- 4 Noroeste 24 Noroeste 0 -- -- --
2018-02-03 02:00:00 -- 18 Noroeste 26 Noroeste 0.1 -- -- --
2018-02-03 01:00:00 -- 17 Noroeste 28 Noroeste 0 -- -- --
2018-02-03 00:00:00 -- 10 Noroeste 17 Noroeste 0 -- -- --
2018-02-02 23:00:00 -- 14 Norte 24 Norte 0 -- -- --
2018-02-02 22:00:00 -- 15 Norte 27 Norte 0 -- -- --
2018-02-02 21:00:00 -- 21 Norte 31 Norte 0 -- -- --
2018-02-02 20:00:00 -- 19 Norte 28 Norte 0 -- -- --
2018-02-02 19:00:00 -- 23 Norte 32 Nordeste 0 -- -- --
2018-02-02 18:00:00 -- 26 Norte 36 Nordeste 0 -- -- --
2018-02-02 17:00:00 -- 24 Nordeste 42 Nordeste 0 -- -- --
2018-02-02 16:00:00 -- 38 Nordeste 48 Nordeste 0 -- -- --
2018-02-02 15:00:00 -- 13 Nordeste 44 Nordeste 0.1 -- -- --
2018-02-02 14:00:00 -- 26 Norte 60 Nordeste 0.2 -- -- --
2018-02-02 13:00:00 -- 32 Norte 50 Norte 0 -- -- --
2018-02-02 12:00:00 -- 15 Nordeste 52 Norte 0 -- -- --
2018-02-02 11:00:00 -- 45 Nordeste 65 Norte 0 -- -- --
2018-02-02 10:00:00 -- 32 Nordeste 61 Nordeste 0 -- -- --
2018-02-02 09:00:00 -- 42 Norte 57 Norte 0.1 -- -- --
2018-02-02 08:00:00 -- 42 Nordeste 69 Nordeste 0.7 -- -- --
2018-02-02 07:00:00 -- 45 Norte 54 Nordeste 0 -- -- --
2018-02-02 06:00:00 -- 43 Norte 77 Nordeste 0 -- -- --
2018-02-02 05:00:00 -- 49 Norte 69 Norte 0.1 -- -- --
2018-02-02 04:00:00 -- 37 Norte 54 Nordeste 0 -- -- --
2018-02-02 03:00:00 -- 41 Norte 53 Norte 0 -- -- --
2018-02-02 02:00:00 -- 41 Norte 62 Nordeste 0 -- -- --
2018-02-02 01:00:00 -- 47 Nordeste 59 Nordeste 0 -- -- --
2018-02-02 00:00:00 -- 47 Nordeste 60 Norte 0 -- -- --
2018-02-01 23:00:00 -- 49 Norte 61 Norte 0.3 -- -- --
2018-02-01 22:00:00 -- 49 Norte 58 Norte 0 -- -- --
2018-02-01 21:00:00 -- 41 Norte 87 Norte 0.2 -- -- --
2018-02-01 20:00:00 -- 49 Nordeste 73 Nordeste 0.1 -- -- --
2018-02-01 19:00:00 -- 50 Norte 76 Nordeste 0 -- -- --
2018-02-01 18:00:00 -- 39 Norte 67 Norte 0.1 -- -- --
2018-02-01 17:00:00 -- 30 Norte 59 Norte 0 -- -- --
2018-02-01 16:00:00 -- 39 Norte 63 Norte 0.3 -- -- --
2018-02-01 15:00:00 -- 35 Norte 66 Norte 0.1 -- -- --
2018-02-01 14:00:00 -- 39 Norte 66 Norte 0.1 -- -- --
2018-02-01 13:00:00 -- 42 Norte 66 Norte 0 -- -- --
2018-02-01 12:00:00 -- 32 Norte 61 Norte 1 -- -- --
2018-02-01 11:00:00 -- 29 Norte 57 Norte 0 -- -- --
2018-02-01 10:00:00 -- 33 Norte 47 Norte 0 -- -- --
2018-02-01 09:00:00 -- 30 Norte 50 Norte 0 -- -- --
2018-02-01 08:00:00 -- 39 Norte 50 Norte 0 -- -- --
2018-02-01 07:00:00 -- 28 Norte 54 Norte 0 -- -- --
2018-02-01 06:00:00 -- 36 Norte 46 Norte 0 -- -- --
2018-02-01 05:00:00 -- 33 Norte 46 Norte 0 -- -- --
2018-02-01 04:00:00 -- 29 Norte 47 Norte 0 -- -- --
2018-02-01 03:00:00 -- 37 Norte 51 Norte 0 -- -- --
2018-02-01 02:00:00 -- 34 Norte 109 Norte 0.1 -- -- --
2018-02-01 01:00:00 -- 30 Norte 55 Norte 0.5 -- -- --
2018-02-01 00:00:00 -- 25 Norte 45 Norte 0.1 -- -- --
2018-01-31 23:00:00 -- 35 Norte 46 Norte 0.1 -- -- --
2018-01-31 22:00:00 -- 7 Nordeste 14 Nordeste 0 -- -- --
2018-01-31 21:00:00 -- 10 Nordeste 13 Nordeste 0 -- -- --
2018-01-31 20:00:00 -- 5 Sudoeste 12 Sudeste 0.1 -- -- --
2018-01-31 19:00:00 -- 8 Sur 10 Oeste 0 -- -- --
2018-01-31 18:00:00 -- 3 Sudoeste 8 Noroeste 0 -- -- --
2018-01-31 17:00:00 -- 5 Norte 18 Norte 0 -- -- --
2018-01-31 16:00:00 -- 6 Norte 14 Norte 0 -- -- --
2018-01-31 15:00:00 -- 5 Nordeste 12 Nordeste 0 -- -- --
2018-01-31 14:00:00 -- 10 Nordeste 19 Nordeste 0 -- -- --
2018-01-31 13:00:00 -- 12 Nordeste 23 Nordeste 0 -- -- --
2018-01-31 12:00:00 -- 14 Nordeste 24 Nordeste 0 -- -- --
2018-01-31 11:00:00 -- 20 Nordeste 29 Nordeste 0 -- -- --
2018-01-31 10:00:00 -- 22 Norte 30 Norte 0 -- -- --
2018-01-31 09:00:00 -- 24 Nordeste 36 Nordeste 0 -- -- --
2018-01-31 08:00:00 -- 22 Nordeste 34 Nordeste 0 -- -- --
2018-01-31 07:00:00 -- 17 Nordeste 32 Nordeste 0 -- -- --
2018-01-31 06:00:00 -- 20 Nordeste 29 Nordeste 0 -- -- --
2018-01-31 05:00:00 -- 19 Nordeste 40 Nordeste 0 -- -- --
2018-01-31 04:00:00 -- 27 Nordeste 42 Nordeste 0 -- -- --
2018-01-31 03:00:00 -- 35 Nordeste 43 Nordeste 0 -- -- --
2018-01-31 02:00:00 -- 29 Nordeste 41 Nordeste 0 -- -- --
2018-01-31 01:00:00 -- 33 Nordeste 40 Nordeste 0 -- -- --
2018-01-31 00:00:00 -- 33 Nordeste 40 Nordeste 0 -- -- --
2018-01-30 23:00:00 -- 36 Nordeste 44 Nordeste 0 -- -- --
2018-01-30 22:00:00 -- 34 Nordeste 44 Nordeste 0 -- -- --
2018-01-30 21:00:00 -- 37 Nordeste 45 Nordeste 0 -- -- --
2018-01-30 20:00:00 -- 35 Nordeste 45 Nordeste 0 -- -- --
2018-01-30 19:00:00 -- 37 Nordeste 43 Nordeste 0 -- -- --
2018-01-30 18:00:00 -- 38 Nordeste 43 Nordeste 0 -- -- --
2018-01-30 17:00:00 -- 33 Nordeste 40 Norte 0 -- -- --
2018-01-30 16:00:00 -- 27 Nordeste 33 Nordeste 0 -- -- --
2018-01-30 15:00:00 -- 28 Nordeste 34 Nordeste 0 -- -- --
2018-01-30 14:00:00 -- 28 Nordeste 33 Nordeste 0 -- -- --
2018-01-30 13:00:00 -- 25 Nordeste 38 Nordeste 0 -- -- --
2018-01-30 12:00:00 -- 25 Nordeste 35 Nordeste 0 -- -- --
2018-01-30 11:00:00 -- 24 Nordeste 35 Nordeste 0 -- -- --
2018-01-30 10:00:00 -- 26 Nordeste 33 Nordeste 0 -- -- --
2018-01-30 09:00:00 -- 21 Nordeste 38 Nordeste 0 -- -- --
2018-01-30 08:00:00 -- 21 Nordeste 39 Nordeste 0 -- -- --
2018-01-30 07:00:00 -- 24 Nordeste 39 Nordeste 0 -- -- --
2018-01-30 06:00:00 -- 20 Nordeste 37 Nordeste 0 -- -- --
2018-01-30 05:00:00 -- 23 Nordeste 34 Nordeste 0 -- -- --
2018-01-30 04:00:00 -- 26 Nordeste 37 Este 0 -- -- --
2018-01-30 03:00:00 -- 23 Nordeste 37 Nordeste 0 -- -- --
2018-01-30 02:00:00 -- 19 Nordeste 40 Nordeste 0 -- -- --
2018-01-30 01:00:00 -- 32 Nordeste 49 Nordeste 0 -- -- --
2018-01-30 00:00:00 -- 26 Nordeste 43 Nordeste 0 -- -- --
2018-01-29 23:00:00 -- 33 Nordeste 49 Nordeste 0 -- -- --
2018-01-29 22:00:00 -- 37 Nordeste 47 Nordeste 0 -- -- --
2018-01-29 21:00:00 -- 32 Nordeste 40 Nordeste 0 -- -- --
2018-01-29 20:00:00 -- 18 Nordeste 27 Nordeste 0 -- -- --
2018-01-29 19:00:00 -- 18 Nordeste 36 Nordeste 0 -- -- --
2018-01-29 18:00:00 -- 26 Nordeste 39 Nordeste 0 -- -- --
2018-01-29 17:00:00 -- 32 Nordeste 38 Nordeste 0 -- -- --
2018-01-29 16:00:00 -- 26 Nordeste 31 Nordeste 0 -- -- --
2018-01-29 15:00:00 -- 21 Nordeste 24 Nordeste 0 -- -- --
2018-01-29 14:00:00 -- 15 Nordeste 18 Nordeste 0 -- -- --
2018-01-29 13:00:00 -- 9 Norte 18 Norte 0 -- -- --
2018-01-29 12:00:00 -- 6 Nordeste 8 Nordeste 0 -- -- --
2018-01-29 11:00:00 -- 2 Nordeste 12 Este 0 -- -- --
2018-01-29 10:00:00 -- 8 Este 15 Sudeste 0 -- -- --
2018-01-29 09:00:00 -- 9 Sudeste 16 Sudeste 0 -- -- --
2018-01-29 08:00:00 -- 7 Sudeste 16 Sudeste 0 -- -- --
2018-01-29 07:00:00 -- 13 Sudeste 15 Sudeste 0 -- -- --
2018-01-29 06:00:00 -- 9 Sudeste 12 Sudeste 0 -- -- --
2018-01-29 05:00:00 -- 3 Sudeste 12 Sudeste 0 -- -- --
2018-01-29 04:00:00 -- 4 Este 17 Sudeste 0 -- -- --
2018-01-29 03:00:00 -- 8 Sudeste 13 Sudeste 0 -- -- --
2018-01-29 02:00:00 -- 6 Este 10 Nordeste 0 -- -- --
2018-01-29 01:00:00 -- 4 Nordeste 10 Nordeste 0 -- -- --
2018-01-29 00:00:00 -- 10 Nordeste 16 Este 0 -- -- --
2018-01-28 23:00:00 -- 10 Este 15 Este 0 -- -- --
2018-01-28 22:00:00 -- 8 Nordeste 17 Nordeste 0 -- -- --
2018-01-28 21:00:00 -- 12 Nordeste 26 Nordeste 0 -- -- --
2018-01-28 20:00:00 -- 18 Nordeste 32 Nordeste 0 -- -- --
2018-01-28 19:00:00 -- 23 Nordeste 37 Nordeste 0 -- -- --
2018-01-28 18:00:00 -- 25 Nordeste 35 Nordeste 0 -- -- --
2018-01-28 17:00:00 -- 21 Nordeste 39 Nordeste 0 -- -- --
2018-01-28 16:00:00 -- 30 Nordeste 45 Nordeste 0 -- -- --
2018-01-28 15:00:00 -- 39 Nordeste 49 Nordeste 0 -- -- --
2018-01-28 14:00:00 -- 40 Nordeste 47 Nordeste 0 -- -- --
2018-01-28 13:00:00 -- 26 Nordeste 36 Nordeste 0 -- -- --
2018-01-28 12:00:00 -- 21 Nordeste 34 Nordeste 0 -- -- --
2018-01-28 11:00:00 -- 26 Nordeste 41 Nordeste 0 -- -- --
2018-01-28 10:00:00 -- 21 Nordeste 37 Nordeste 0 -- -- --
2018-01-28 09:00:00 -- 23 Nordeste 49 Nordeste 0 -- -- --
2018-01-28 08:00:00 -- 40 Nordeste 48 Nordeste 0 -- -- --
2018-01-28 07:00:00 -- 34 Nordeste 44 Nordeste 0 -- -- --
2018-01-28 06:00:00 -- 35 Nordeste 48 Nordeste 0 -- -- --
2018-01-28 05:00:00 -- 34 Nordeste 42 Nordeste 0 -- -- --
2018-01-28 04:00:00 -- 32 Nordeste 49 Nordeste 0 -- -- --
2018-01-28 03:00:00 -- 39 Nordeste 49 Nordeste 0 -- -- --
2018-01-28 02:00:00 -- 35 Nordeste 46 Nordeste 0 -- -- --
2018-01-28 01:00:00 -- 32 Nordeste 38 Nordeste 0 -- -- --
2018-01-28 00:00:00 -- 31 Nordeste 36 Nordeste 0 -- -- --
2018-01-27 23:00:00 -- 31 Nordeste 36 Nordeste 0 -- -- --
2018-01-27 22:00:00 -- 27 Norte 32 Norte 0 -- -- --
2018-01-27 21:00:00 -- 25 Norte 35 Norte 0 -- -- --
2018-01-27 20:00:00 -- 24 Norte 28 Norte 0 -- -- --
2018-01-27 19:00:00 -- 18 Norte 28 Norte 0.2 -- -- --
2018-01-27 18:00:00 -- 21 Nordeste 29 Norte 0.1 -- -- --
2018-01-27 17:00:00 -- 8 Norte 12 Norte 0 -- -- --
2018-01-27 16:00:00 -- 6 Nordeste 10 Norte 0 -- -- --
2018-01-27 15:00:00 -- 7 Nordeste 17 Nordeste 0.1 -- -- --
2018-01-27 14:00:00 -- 10 Norte 16 Norte 0.3 -- -- --
2018-01-27 13:00:00 -- 12 Nordeste 16 Nordeste 0 -- -- --
2018-01-27 12:00:00 -- 10 Norte 15 Norte 0 -- -- --
2018-01-27 11:00:00 -- 11 Norte 16 Norte 0 -- -- --
2018-01-27 10:00:00 -- 13 Norte 22 Nordeste 0 -- -- --
2018-01-27 09:00:00 -- 17 Norte 23 Norte 0 -- -- --
2018-01-27 08:00:00 -- 12 Norte 18 Norte 0 -- -- --
2018-01-27 07:00:00 -- 14 Norte 21 Norte 0 -- -- --
2018-01-27 06:00:00 -- 17 Norte 22 Norte 0 -- -- --
2018-01-27 05:00:00 -- 17 Norte 26 Norte 0 -- -- --
2018-01-27 04:00:00 -- 23 Norte 30 Norte 0 -- -- --
2018-01-27 03:00:00 -- 22 Norte 30 Norte 0 -- -- --
2018-01-27 02:00:00 -- 24 Norte 33 Nordeste 0 -- -- --
2018-01-27 01:00:00 -- 27 Norte 34 Norte 0 -- -- --
2018-01-27 00:00:00 -- 27 Norte 34 Norte 0 -- -- --
2018-01-26 23:00:00 -- 25 Nordeste 35 Nordeste 0 -- -- --
2018-01-26 22:00:00 -- 26 Nordeste 39 Norte 0 -- -- --
2018-01-26 21:00:00 -- 24 Norte 38 Nordeste 0 -- -- --
2018-01-26 20:00:00 -- 30 Norte 37 Norte 0 -- -- --
2018-01-26 19:00:00 -- 24 Norte 39 Norte 0.1 -- -- --
2018-01-26 18:00:00 -- 21 Norte 43 Norte 0 -- -- --
2018-01-26 17:00:00 -- 24 Norte 51 Norte 0 -- -- --
2018-01-26 16:00:00 -- 31 Norte 45 Norte 0 -- -- --
2018-01-26 15:00:00 -- 32 Norte 41 Norte 0 -- -- --
2018-01-26 14:00:00 -- 35 Norte 47 Norte 0 -- -- --
2018-01-26 13:00:00 -- 36 Norte 47 Norte 0 -- -- --
2018-01-26 12:00:00 -- 31 Norte 55 Norte 0 -- -- --
2018-01-26 11:00:00 -- 30 Norte 49 Norte 0 -- -- --
2018-01-26 10:00:00 -- 28 Norte 48 Norte 0 -- -- --
2018-01-26 09:00:00 -- 31 Norte 63 Norte 0.1 -- -- --
2018-01-26 08:00:00 -- 35 Norte 57 Norte 0.2 -- -- --
2018-01-26 07:00:00 -- 36 Norte 55 Norte 0 -- -- --
2018-01-26 06:00:00 -- 42 Norte 57 Norte 0 -- -- --
2018-01-26 05:00:00 -- 34 Norte 46 Norte 0 -- -- --
2018-01-26 04:00:00 -- 33 Norte 51 Norte 0 -- -- --
2018-01-26 03:00:00 -- 39 Norte 59 Norte 0.2 -- -- --
2018-01-26 02:00:00 -- 35 Norte 44 Norte 0 -- -- --
2018-01-26 01:00:00 -- 27 Norte 46 Noroeste 0 -- -- --
2018-01-26 00:00:00 -- 28 Noroeste 45 Norte 0 -- -- --
2018-01-25 23:00:00 -- 34 Noroeste 57 Noroeste 0 -- -- --
2018-01-25 22:00:00 -- 25 Noroeste 39 Noroeste 0 -- -- --
2018-01-25 21:00:00 -- 23 Noroeste 44 Noroeste 0 -- -- --
2018-01-25 20:00:00 -- 16 Noroeste 45 Norte 0.2 -- -- --
2018-01-25 19:00:00 -- 24 Noroeste 43 Noroeste 0.1 -- -- --
2018-01-25 18:00:00 -- 25 Noroeste 41 Noroeste 0 -- -- --
2018-01-25 17:00:00 -- 8 Norte 48 Noroeste 0 -- -- --
2018-01-25 16:00:00 -- 23 Noroeste 39 Noroeste 0 -- -- --
2018-01-25 15:00:00 -- 21 Noroeste 36 Noroeste 0 -- -- --
2018-01-25 14:00:00 -- 21 Noroeste 31 Noroeste 0 -- -- --
2018-01-25 13:00:00 11.2 17 Noroeste 30 Noroeste 0 -- -- 17
2018-01-25 12:00:00 9.9 23 Norte 32 Noroeste 0 -- -- 16
2018-01-25 11:00:00 9.4 18 Noroeste 42 Norte 0.2 -- -- 17
2018-01-25 10:00:00 9 21 Noroeste 33 Noroeste 0.1 -- -- 17
2018-01-25 09:00:00 9.1 19 Oeste 33 Oeste 0.8 -- -- 16
2018-01-25 08:00:00 8.9 15 Oeste 28 Noroeste 0 -- -- 17
2018-01-25 07:00:00 8.4 25 Noroeste 55 Oeste 0 -- -- 17
2018-01-25 06:00:00 10.2 18 Oeste 33 Oeste 0 -- -- 17
2018-01-25 05:00:00 9.7 24 Oeste 32 Oeste 0.1 -- -- 17
2018-01-25 04:00:00 10.1 18 Oeste 34 Sudoeste 0.2 -- -- 16
2018-01-25 03:00:00 10 23 Sudoeste 37 Sudoeste 0.3 -- -- 16
2018-01-25 02:00:00 10.4 30 Oeste 40 Oeste 0.1 -- -- 16
2018-01-25 01:00:00 10.9 23 Sudoeste 32 Sudoeste 0.2 -- -- 16
2018-01-25 00:00:00 10.9 22 Sudoeste 36 Oeste 1 -- -- 17
2018-01-24 23:00:00 11.2 21 Sudoeste 26 Sudoeste 0 -- -- 16
2018-01-24 22:00:00 10.7 13 Sur 21 Sur 0 -- -- 16
2018-01-24 21:00:00 10.7 16 Sur 21 Sudeste 0.1 -- -- 17
2018-01-24 20:00:00 10.6 10 Sudoeste 27 Oeste 1.7 -- -- 16
2018-01-24 19:00:00 10.8 13 Oeste 32 Noroeste 1 -- -- 16
2018-01-24 18:00:00 12.3 37 Sudoeste 66 Sudoeste 7.3 -- -- 16
2018-01-24 17:00:00 12.5 42 Sur 63 Sur 2.5 -- -- 16
2018-01-24 16:00:00 11.9 44 Sur 66 Sur 1.7 -- -- 16
2018-01-24 15:00:00 11.8 49 Sur 68 Sur 0.5 -- -- 16
2018-01-24 14:00:00 11.8 48 Sur 67 Sur 0.6 -- -- 16
2018-01-24 13:00:00 11.7 49 Sur 68 Sur 0.1 -- -- 16
2018-01-24 12:00:00 12.1 46 Sur 63 Sur 0 -- -- 16
2018-01-24 11:00:00 11.7 43 Sur 63 Sur 0 -- -- 16
2018-01-24 10:00:00 11.5 43 Sur 59 Sur 0.2 -- -- 16
2018-01-24 09:00:00 11.8 43 Sur 58 Sur 0 -- -- 16
2018-01-24 08:00:00 12 42 Sur 59 Sur 0 -- -- 17
2018-01-24 07:00:00 12.1 42 Sur 53 Sur 0 -- -- 16
2018-01-24 06:00:00 12.9 38 Sur 51 Sudoeste 0 -- -- 16
2018-01-24 05:00:00 12.9 37 Sur 49 Sur 0 -- -- 17
2018-01-24 04:00:00 13.2 31 Sur 49 Sur 0 -- -- 17
2018-01-24 03:00:00 13.2 34 Sur 46 Sur 0 -- -- 17
2018-01-24 02:00:00 13.2 32 Sur 48 Sur 0 -- -- 17
2018-01-24 01:00:00 12.9 32 Sur 44 Sudoeste 0 -- -- 16
2018-01-24 00:00:00 12.6 28 Sur 37 Sur 0 -- -- 16
2018-01-23 23:00:00 12.6 26 Sur 37 Sur 0 -- -- 16
2018-01-23 22:00:00 12.7 24 Sur 37 Sur 0 -- -- 16
2018-01-23 21:00:00 12.7 25 Sur 36 Sur 0 -- -- 16
2018-01-23 20:00:00 12.7 23 Sur 34 Sur 0 -- -- 16
2018-01-23 19:00:00 12.8 23 Sur 35 Sur 0 -- -- 16
2018-01-23 18:00:00 13.2 24 Sur 35 Sur 0 -- -- 16
2018-01-23 17:00:00 13.6 23 Sur 32 Sur 0 -- -- 16
2018-01-23 16:00:00 14 24 Sur 37 Sudoeste 0 -- -- 16
2018-01-23 15:00:00 14 27 Sur 37 Sur 0 -- -- 16
2018-01-23 14:00:00 14.3 22 Sur 37 Sur 0 -- -- 16
2018-01-23 13:00:00 13.7 27 Sur 41 Sur 0 -- -- 16
2018-01-23 12:00:00 13.3 21 Sur 31 Sur 0 -- -- 16
2018-01-23 11:00:00 12.6 23 Sur 66 Sur 0 -- -- 16
2018-01-23 10:00:00 12.5 25 Sur 33 Sur 0 -- -- 16
2018-01-23 09:00:00 12.1 25 Sur 33 Sudoeste 0 -- -- 16
2018-01-23 08:00:00 12.2 21 Sudoeste 28 Sudoeste 0 -- -- 16
2018-01-23 07:00:00 11.9 21 Sur 30 Sudoeste 0 -- -- 16
2018-01-23 06:00:00 12.4 22 Sudoeste 37 Sudoeste 0 -- -- 17
2018-01-23 05:00:00 12 25 Sudoeste 36 Sudoeste 0 -- -- 16
2018-01-23 04:00:00 12.5 24 Sudoeste 33 Sur 0 -- -- 16
2018-01-23 03:00:00 12.9 27 Sudoeste 37 Sudoeste 0 -- -- 16
2018-01-23 02:00:00 12.8 23 Sudoeste 31 Sudoeste 0 -- -- 16
2018-01-23 01:00:00 12.9 22 Sudoeste 30 Sudoeste 0 -- -- 16
2018-01-23 00:00:00 12.9 19 Sudoeste 28 Sudoeste 0 -- -- 16
2018-01-22 23:00:00 12.9 22 Sur 27 Sur 0 -- -- 16
2018-01-22 22:00:00 13 20 Sur 28 Sur 0 -- -- 16
2018-01-22 21:00:00 13 20 Sur 31 Sudoeste 0 -- -- 16
2018-01-22 20:00:00 13 21 Sur 30 Sudoeste 0 -- -- 16
2018-01-22 19:00:00 13 21 Sur 27 Sur 0 -- -- 16
2018-01-22 18:00:00 13 24 Sudoeste 33 Sudoeste 0.2 -- -- 16
2018-01-22 17:00:00 13.4 24 Sudoeste 32 Sudoeste 0 -- -- 17
2018-01-22 16:00:00 13.4 25 Sudoeste 35 Sudoeste 0.2 -- -- 16
2018-01-22 15:00:00 13.4 28 Sudoeste 37 Sudoeste 0.2 -- -- 16
2018-01-22 14:00:00 13.3 28 Sudoeste 37 Sudoeste 0.2 -- -- 16
2018-01-22 13:00:00 13.1 29 Sudoeste 39 Sudoeste 0.4 -- -- 17
2018-01-22 12:00:00 13 28 Sudoeste 35 Sudoeste 0.2 -- -- 16
2018-01-22 11:00:00 12.8 26 Sudoeste 36 Sudoeste 0 -- -- 16
2018-01-22 10:00:00 12.3 25 Sur 35 Sur 0 -- -- 16
2018-01-22 09:00:00 12 24 Sur 33 Sudoeste 0.2 -- -- 16
2018-01-22 08:00:00 12 25 Sur 35 Sudoeste 0 -- -- 17
2018-01-22 07:00:00 12.1 24 Sudoeste 39 Sudoeste 0 -- -- 17
2018-01-22 06:00:00 12 31 Sudoeste 38 Sudoeste 0.1 -- -- 16
2018-01-22 05:00:00 11.8 26 Sudoeste 37 Sudoeste 0 -- -- 16
2018-01-22 04:00:00 11.9 23 Sudoeste 38 Sudoeste 0.1 -- -- 17
2018-01-22 03:00:00 12.1 27 Sudoeste 35 Sudoeste 0 -- -- 17
2018-01-22 02:00:00 11.8 26 Sudoeste 41 Sudoeste 0 -- -- 16
2018-01-22 01:00:00 11.9 25 Sudoeste 38 Sudoeste 0 -- -- 16
2018-01-22 00:00:00 12.1 26 Sudoeste 37 Sudoeste 0.1 -- -- 17